This demonstration page uses our WeatherBlox Daily Observations layout. Learn more.

Left ArrowRight Arrow

39.08367, -84.50855

Hourly Observations for April 22, 2020

Temp ( °F °C ) Dew Point ( °F °C ) Humidity (%) Winds ( mph kmh ) Pressure ( in mb ) Visibility ( mi km ) Precip ( " mm )
12:53 am 00:53 Clear 35 1.7 30 -1.1 82 82 Calm 30.06 1018 10 16 0.00 0.00
1:53 am 01:53 Clear 35 1.7 30 -1.1 82 82 Calm 30.07 1018 10 16 0.00 0.00
2:53 am 02:53 Clear 33 0.6 30 -1.1 89 89 Calm 30.06 1018 10 16 0.00 0.00
3:53 am 03:53 Clear 32 0 30 -1.1 92 92 Calm 30.07 1018 10 16 0.00 0.00
4:53 am 04:53 Clear 31 -0.6 28 -2.2 89 89 NE 3 6 30.09 1019 10 16 0.00 0.00
5:53 am 05:53 Clear 30 -1.1 28 -2.2 92 92 Calm 30.08 1019 10 16 0.00 0.00
6:53 am 06:53 Sunny 30 -1.1 28 -2.2 92 92 E 5 7 30.10 1019 10 16 0.00 0.00
7:53 am 07:53 Sunny 33 0.6 30 -1.1 89 89 NNE 3 6 30.12 1020 10 16 0.00 0.00
8:53 am 08:53 Sunny 40 4.4 31 -0.6 70 70 Calm 30.12 1020 10 16 0.00 0.00
9:53 am 09:53 Sunny 48 8.9 28 -2.2 46 46 SSE 7 11 30.12 1020 10 16 0.00 0.00
10:53 am 10:53 Sunny 53 11.7 28 -2.2 38 38 SW 3 6 30.09 1019 10 16 0.00 0.00
11:53 am 11:53 Sunny 57 13.9 29 -1.7 34 34 S 8 13 30.08 1019 10 16 0.00 0.00
12:53 pm 12:53 Mostly Sunny 61 16.1 32 0 34 34 S 8 13 30.05 1018 10 16 0.00 0.00
1:53 pm 13:53 Sunny 64 17.8 33 0.6 32 32 SSW 7 11 30.01 1016 10 16 0.00 0.00
2:53 pm 14:53 Sunny 66 18.9 36 2.2 33 33 S 10 17 29.99 1016 10 16 0.00 0.00
3:53 pm 15:53 Sunny 69 20.6 37 2.8 31 31 WSW 16 26 29.96 1015 10 16 0.00 0.00
4:53 pm 16:53 Sunny 70 21.1 39 3.9 32 32 SW 13 20 29.93 1014 10 16 0.00 0.00
5:53 pm 17:53 Sunny 70 21.1 39 3.9 32 32 SSW 13 20 29.91 1013 10 16 0.00 0.00
6:53 pm 18:53 Sunny 67 19.4 39 3.9 36 36 SSW 14 22 29.89 1012 10 16 0.00 0.00
7:53 pm 19:53 Sunny 64 17.8 39 3.9 40 40 SW 9 15 29.90 1013 10 16 0.00 0.00
8:53 pm 20:53 Clear 59 15 40 4.4 49 49 S 3 6 29.93 1013 10 16 0.00 0.00
9:53 pm 21:53 Clear 54 12.2 43 6.1 67 67 SW 5 7 29.93 1014 10 16 0.00 0.00
10:53 pm 22:53 Clear 54 12.2 43 6.1 67 67 Calm 29.94 1014 10 16 0.00 0.00
11:53 pm 23:53 Clear 52 11.1 44 6.7 75 75 Calm 29.91 1013 10 16 0.00 0.00

Powered by AerisWeather